This demonstration page uses our WeatherBlox Daily Observations layout. Learn more.

Left ArrowRight Arrow

41.86663, -103.66717

Hourly Observations for March 17, 2020

Temp ( °F °C ) Dew Point ( °F °C ) Humidity (%) Winds ( mph kmh ) Pressure ( in mb ) Visibility ( mi km ) Precip ( " mm )
12:03 am 00:03 Cloudy 33 0.6 32 undefined 96 96 ESE 5 7 30.32 1027 10 16 N/A
12:29 am 00:29 Cloudy 33 0.6 31 -0.6 92 92 ESE 6 9 30.31 1026 10 16 N/A
12:53 am 00:53 Cloudy 33 0.6 31 -0.6 92 92 SE 7 11 30.25 1025 10 16 N/A
1:30 am 01:30 Cloudy 34 1 32 undefined 93 93 undefined N/A 30.30 1026 10 16 N/A
1:53 am 01:53 Cloudy 33 0.6 32 undefined 96 96 ESE 10 17 30.23 1024 10 16 N/A
2:04 am 02:04 Cloudy 33 0.6 32 undefined 96 96 ESE 12 19 30.28 1025 10 16 N/A
2:16 am 02:16 Cloudy with Mist and Fog 33 0.6 32 undefined 96 96 ESE 12 19 30.27 1025 5 8 N/A
2:53 am 02:53 Cloudy 33 0.6 32 undefined 96 96 undefined N/A 30.21 1023 8 13 N/A
3:53 am 03:53 Cloudy 33 0.6 33 0.6 100 100 ESE 10 17 30.17 1022 10 16 N/A
4:36 am 04:36 Cloudy 34 1.1 33 0.6 97 97 SE 10 17 30.20 1023 10 16 N/A
4:53 am 04:53 Cloudy 34 1.1 33 0.6 97 97 ESE 10 17 30.16 1021 10 16 N/A
5:53 am 05:53 Cloudy 34 1.1 33 0.6 97 97 SE 10 17 30.14 1021 10 16 N/A
6:53 am 06:53 Cloudy 34 1.1 32 undefined 92 92 SE 12 19 30.13 1020 10 16 N/A
7:53 am 07:53 Cloudy 35 1.7 32 undefined 89 89 SE 8 13 30.11 1020 10 16 N/A
8:31 am 08:31 Cloudy 36 2.2 32 undefined 86 86 SSE 9 15 30.13 1020 10 16 N/A
8:42 am 08:42 Cloudy 36 2 32 undefined 87 87 SE 10 17 30.13 1020 10 16 N/A
8:53 am 08:53 Cloudy 36 2.2 32 undefined 86 86 SE 9 15 30.09 1019 10 16 N/A
9:05 am 09:05 Cloudy 36 2.2 33 0.6 89 89 SE 7 11 30.12 1020 10 16 N/A
9:34 am 09:34 Cloudy 38 3.3 33 0.6 83 83 S 16 26 30.09 1019 10 16 N/A
9:53 am 09:53 Cloudy 38 3.3 33 0.6 83 83 S 14 22 30.06 1018 10 16 N/A
10:08 am 10:08 Cloudy 38 3.3 33 0.6 83 83 SSE 14 22 30.08 1019 10 16 N/A
10:53 am 10:53 Cloudy 39 3.9 34 1.1 82 82 SSE 17 28 30.04 1017 10 16 N/A
11:51 am 11:51 Cloudy 43 6 36 2 76 76 SSE 18 30 29.97 1015 10 16 N/A
11:53 am 11:53 Cloudy 42 5.6 35 1.7 76 76 SSE 17 28 29.98 1015 10 16 N/A
12:53 pm 12:53 Cloudy 46 7.8 36 2.2 68 68 SSE 17 28 29.92 1013 10 16 N/A
1:53 pm 13:53 Partly Cloudy 49 9.4 37 2.8 64 64 SSE 20 31 29.88 1012 10 16 N/A
2:53 pm 14:53 Mostly Sunny 51 10.6 38 3.3 61 61 S 16 26 29.83 1010 10 16 N/A
3:53 pm 15:53 Sunny 54 12.2 38 3.3 55 55 SSE 14 22 29.81 1010 10 16 N/A
4:53 pm 16:53 Sunny 55 12.8 39 3.9 55 55 undefined N/A 29.80 1009 10 16 N/A
5:53 pm 17:53 Sunny 52 11.1 39 3.9 61 61 SSE 14 22 29.80 1009 10 16 N/A
6:53 pm 18:53 Sunny 49 9.4 40 4.4 71 71 SE 10 17 29.81 1009 10 16 N/A
7:53 pm 19:53 Clear 41 5 38 3.3 89 89 ESE 8 13 29.84 1010 10 16 N/A
8:53 pm 20:53 Clear 40 4.4 38 3.3 93 93 ESE 12 19 29.85 1011 10 16 N/A
9:53 pm 21:53 Clear 38 3.3 37 2.8 97 97 ESE 10 17 29.86 1011 10 16 N/A
10:53 pm 22:53 Clear 38 3.3 37 2.8 97 97 ESE 13 20 29.86 1011 10 16 N/A
11:53 pm 23:53 Clear 36 2.2 35 1.7 97 97 E 9 15 29.85 1011 10 16 N/A

Powered by AerisWeather